Preview of NWS' New Version of Forecast
This preview is not operational and should not be used for support decisions.
Latest weather observations around

Bar Harbor, Hancock County-Bar Harbor Airport (KBHB)

Using English Units (Switch to International System of Units)
Date/ Time (EST) Wind (mph) Vis. (mi) Weather Sky Cond. Temp (°F) Rel. Humidity Wind Chill (°F) Heat Index (°F) Pressure Precip. (in)
Air Dwpt 6 hour Altimeter (inHg) Sea level (inHg) 1 hr 3 hr 6 hr
Max Min
Jan 18 14:56 SSE 15 10 Cloudy OVC022 31 26     82% 20   30.03 30.04 0    
Jan 18 13:56 SSE 15 10 Unknown Precipitation OVC022 31 24     75% 20   30.05 30.06 0    
Jan 18 12:56 S 20 9 Light Snow OVC024 30 23     75% 17   30.07 30.09 0   0
Jan 18 11:56 S 17 10 Unknown Precipitation OVC026 31 23     72% 19   30.11 30.12 0    
Jan 18 10:56 SSE 17 10 Unknown Precipitation BKN026 OVC035 31 23     72% 19   30.15 30.16 0    
Jan 18 09:56 S 16 9 Unknown Precipitation FEW023 BKN030 OVC037 30 23     75% 19   30.19 30.2 0 0  
Jan 18 08:56 SSE 3 9 Light Snow BKN024 BKN030 OVC035 26 23     88% 22   30.2 30.21 0    
Jan 18 08:12 SE 5 4 Light Snow and Fog/Mist FEW022 BKN027 OVC041 25 21     86% 19   30.21   0    
Jan 18 07:56 SE 3 6 Light Snow FEW024 BKN030 OVC038 25 20     81% 21   30.22 30.23 0    
Jan 18 06:56 Calm 10 Cloudy FEW031 OVC043 23 17     78%     30.23 30.24      
Jan 18 06:41 ESE 3 10 Cloudy BKN031 OVC041 25 16     68% 21   30.23        
Jan 18 05:56 SE 6 10 Cloudy OVC029 23 15     71% 16   30.23 30.24      
Jan 18 04:56 Calm 10 Cloudy OVC029 17 11     76%     30.24 30.25      
Jan 18 04:53 Calm 10 Cloudy OVC029 16 10     79%     30.24        
Jan 18 03:56 Calm 10 Cloudy SCT033 OVC090 16 10     77%     30.27 30.28      
Jan 18 02:56 Calm 10 Cloudy OVC095 14 8     77%     30.31 30.32      
Jan 18 01:56 N 3 10 Cloudy BKN090 OVC100 13 6     74% 7   30.34 30.35      
Jan 18 00:56 N 5 10 Cloudy OVC100 11 5     76% 3   30.35 30.36      
Jan 17 23:56 NNW 3 10 Cloudy OVC110 11 4     73% 5   30.37 30.38      
Jan 17 22:56 Calm 10 Mostly Clear FEW120 10 3     73%     30.39 30.4      
Jan 17 21:56 Calm 10 Clear CLR 9 2     73%     30.39 30.4      
Jan 17 20:56 NW 5 10 Clear CLR 7 2     79% -2   30.39 30.4      
Jan 17 19:56 NNW 3 10 Clear CLR 6 0     75% -1   30.39 30.4      
Jan 17 18:56 Calm 10 Clear CLR 7 -2     66%     30.4 30.41      
Jan 17 17:56 N 3 10 Clear CLR 9 -3     58% 3   30.38 30.39      
Jan 17 16:56 Calm 7 Clear CLR 12 -5     45%     30.37 30.38      
Jan 17 15:56 Calm 10 Clear CLR 15 -7     36%     30.35 30.36      
Jan 17 14:56 NNW 3 10 Clear CLR 16 -7     35% 11   30.35 30.36      
Jan 17 13:56 5 10 Clear CLR 15 -7     36% 8   30.33 30.34      
Jan 17 12:56 NNW 11 10 Clear CLR 14 -9     34% 1   30.33 30.34      
Jan 17 11:56 NNW 10 10 Clear CLR 13 -8     38% 0   30.33 30.34      
Jan 17 09:56 N 9 10 Clear CLR 10 -8     43% -3   30.36 30.37      
Jan 17 08:56 NNW 9 10 Clear CLR 8 -8     47% -5   30.35 30.36      
Jan 17 07:56 NW 7 10 Clear CLR 7 -6     55% -5   30.33 30.35      
Jan 17 06:56 NW 5 10 Clear CLR 6 -7     54% -3   30.3 30.31      
Jan 17 05:56 NNW 6 10 Clear CLR 6 -5     59% -4   30.26 30.27      
Jan 17 04:56 NW 11 10 Clear CLR 7 -5     57% -8   30.24 30.25      
Jan 17 03:56 NW 10 10 Clear CLR 8 -6     52% -6   30.22 30.23      
Jan 17 02:56 6 10 Clear CLR 11 -2     55% 1   30.19 30.2      
Jan 17 01:56 NNW 11 10 Clear CLR 13 -1     53% -1   30.14 30.15      
Jan 17 00:56 NW 10 10 Clear CLR 16 2     53% 4   30.09 30.1     0
Jan 16 23:56 NNW 9 10 Clear CLR 21 6     52% 11   30.05 30.06      
Jan 16 22:56 NW 11 10 Clear CLR 27 14     58% 17   30 30.01      
Jan 16 21:56 W 11 10 Clear CLR 30 17     58% 21   29.94 29.96   0  
Jan 16 20:56 WNW 8 10 Mostly Clear FEW075 31 23     72% 23   29.91 29.92 0    
Jan 16 19:56 5 10 Cloudy BKN050 BKN060 OVC080 33 24     69% 29   29.87 29.89      
Jan 16 18:56 SW 7 10 Mostly Cloudy BKN075 32 24     72% 26   29.85 29.86     0
Jan 16 17:56 SW 9 10 Clear CLR 31 24     75% 23   29.84 29.85      
Jan 16 16:56 SSW 5 10 Clear CLR 31 22     69% 26   29.82 29.83      
Jan 16 15:56 WSW 6 10 Mostly Cloudy BKN041 34 22     61% 29   29.81 29.82   0  
Jan 16 14:56 WSW 10 10 Cloudy BKN031 OVC043 35 24     64% 27   29.79 29.8 0    
Jan 16 14:33 SW 9 10 Cloudy FEW027 OVC043 36 25     64% 29   29.79   0    
Jan 16 13:56 SW 14 7 Unknown Precipitation OVC023 35 27     72% 26   29.78 29.8 0    
Jan 16 12:56   10 Cloudy OVC025 35 27     72%     29.8 29.81     0
Jan 16 11:56 SSW 11 10 Cloudy OVC025 34 26     72% 26   29.84 29.85      
Jan 16 11:36 SSW 16 10 Cloudy BKN025 BKN030 OVC039 36 27     69% 26   29.84        
Jan 16 11:10   10 Cloudy FEW023 OVC039 36 27     69%     29.86        
Jan 16 10:56 SSW 14 10 Cloudy BKN029 OVC037 34 26     72% 25   29.87 29.88 0    
Jan 16 09:56   10 Cloudy OVC027 34 26     72%     29.91 29.92 0 0  
Jan 16 08:56 SSW 11 10 Cloudy OVC027 33 26     75% 24   29.93 29.94 0    
Jan 16 07:56 S 13 10 Unknown Precipitation OVC022 32 27     81% 22   29.93 29.94 0    
Jan 16 06:56 S 10 10 Cloudy OVC024 31 26     82% 22   29.96 29.97      
Jan 16 05:56 SSE 8 10 Cloudy BKN026 OVC030 28 24     85% 20   29.96 29.97      
Jan 16 05:24 Calm 10 Cloudy BKN026 OVC032 25 19     80%     29.97        
Jan 16 04:56 Calm 10 Cloudy BKN031 OVC065 23 19     85%     29.98 29.99      
Jan 16 03:56 Calm 10 Cloudy OVC060 23 18     81%     30 30.01      
Jan 16 02:56 Calm 6 Haze OVC060 22 17     81%     30.01 30.02      
Jan 16 01:56 Calm 6 Haze OVC050 23 18     81%     30.03 30.04      
Jan 16 00:56 Calm 10 Cloudy OVC055 23 18     81%     30.03 30.04      
Jan 15 23:56 Calm 10 Cloudy OVC055 23 18     81%     30.06 30.07      
Jan 15 22:56 Calm 10 Cloudy OVC049 22 18     84%     30.08 30.09      
Jan 15 21:56 SSW 3 10 Cloudy OVC041 22 18     84% 17   30.08 30.09      
Jan 15 20:56 Calm 10 Cloudy OVC043 21 16     81%     30.08 30.09      
Jan 15 19:56 W 3 10 Cloudy OVC045 21 15     77% 16   30.08 30.09      
Jan 15 18:56 Calm 10 Mostly Cloudy BKN043 18 13     80%     30.06 30.08      
Jan 15 17:56 NNW 3 10 Clear CLR 21 14     74% 16   30.06 30.07      
Jan 15 16:56 NNW 5 10 Clear CLR 23 14     68% 17   30.05 30.06      
Jan 15 15:56 N 6 10 Clear CLR 26 15     63% 19   30.04 30.05      
May 15 02:38 Calm 3 Fog/Mist SCT008 45 45     100%     29.87        
May 13 23:56 SSW 14 10 Cloudy OVC004 44 43     96% 37   30.1 30.11      
May 13 20:29 SSW 13 10 Cloudy OVC004 45 45     100% 38   30.11        
May 12 15:56 SSW 16 10 Clear CLR 53 29     39%     30.13 30.14      
May 12 04:56 Calm 10 Clear CLR 33 27     78%     30.21 30.22      
May 11 09:56 NW 9 10 Clear CLR 51 31     46%     29.88 29.89      
Jun 11 23:56 WSW 6 10 Clear   62 56     80%     29.84 29.85      
Notice The following observation data may not be complete
Jun 11 10:56   10 Clear CLR   59      %     29.86 29.87      
Jun 10 19:56 SSW 9 10 Clear CLR 59 51     75%     29.96 29.97      
Jun 09 05:56 E 6 10 Cloudy FEW050 BKN090 OVC110 51 45     79%     29.75 29.76 0    
Jun 08 08:56 SSW 10 10 Clear CLR 62 49     62%     30 30.01      
Jun 07 10:56 NNE 5 10 Clear CLR 65 41     42%     29.93 29.94      
Jun 06 03:12 NE 9 10 Mostly Cloudy BKN015 46 41     81% 42   29.99